Weather in Goychay

Azerbaijan     40°38′59″N   47°44′31″E
temp.,
°C
wind,
m/s
gust,
m/s
humid.,
%
clouds,
%
prec.,
mm/h
press.,
hPa
HPBL,
m
9 may, sun
sun901:00+14se238416 0.0 101666
04:00+13ene11870 0.0 101413
07:00+14n11800 0.0 101493
10:00+20wsw23604 0.0 1012860
13:00+24sw33495 0.0 10091190
16:00+25s3346100 0.0 10061089
19:00+22ssw235980 0.0 100680
22:00+15w4694100 2.1 1011379
10 may, mon
mon1001:00+14wnw3492100 2.1 1012345
04:00+12nw3490100 3.0 1012286
07:00+10nw51092100 1.3 1015480
10:00+9nw41089100 4.8 1018558
13:00+9nnw2287100 1.5 1019307
16:00+11sse1285100 1.6 1019407
19:00+11se348147 0.0 1019459
22:00+9se498188 0.1 1022493
11 may, tue
tue1101:00+9se2682100 0.2 1022500
04:00+9e1282100 0.3 1021257
07:00+9nw0084100 0.3 1022117
10:00+10nnw117999 0.3 1021328
13:00+15w225865 0.0 10191298
16:00+17wnw335112 0.0 10161366
19:00+16sw126121 0.0 101752
22:00+12ene11701 0.0 101911
12 may, wed
wed1201:00+11ese11770 0.0 101820
04:00+10ene11870 0.0 101812
07:00+12e11790 0.0 1019110
10:00+17ssw11625 0.0 1018898
13:00+20sw22510 0.0 10161201
16:00+22ssw22480 0.0 10151272
19:00+20ssw23600 0.0 101564
22:00+16ne22690 0.0 101614
13 may, thu
thu1301:00+14ene11790 0.0 101611
04:00+14nne22800 0.0 101614
07:00+15sse11750 0.0 101781
10:00+20ssw21604 0.0 1017673
13:00+24ssw21470 0.0 10161024
16:00+26s22415 0.0 10151174
19:00+24se23534 0.0 101544
22:00+18ese23671 0.0 101735